Wind_Speed
2 2 5 10 13 15 17 20 23 24 27 31 36 40 50 46 37 30 16 13 13 14 14 16 15 19 20 19 20 22 26 33 39 39 35 32 32 28 23 26 25 23 25 26 28
4 4 7 12 16 18 19 23 23 25 29 34 36 41 49 47 41 32 20 15 15 15 15 18 20 21 22 23 21 24 26 33 40 43 41 35 32 31 27 31 27 27 29 31 31
7 7 11 16 19 21 23 25 25 25 30 35 39 42 47 45 39 34 26 19 19 18 20 20 22 23 25 26 25 25 28 34 38 41 38 33 30 30 34 32 32 33 34 36 40
10 12 14 19 21 24 26 27 26 27 32 37 39 43 47 44 41 35 30 24 20 19 21 22 23 25 26 26 27 28 31 35 39 42 43 35 30 34 37 38 39 42 44 44 41
14 15 18 22 24 25 28 28 28 28 32 35 39 44 49 46 41 37 28 24 22 21 22 23 23 24 26 28 30 31 32 37 41 43 44 39 36 37 38 41 44 45 47 46 46
17 18 22 24 26 27 27 29 29 30 32 36 40 46 51 47 36 35 32 27 26 25 23 23 24 24 27 29 32 34 37 38 41 44 45 42 36 40 41 41 44 47 47 49 50
20 22 24 26 27 28 29 31 32 33 34 37 42 49 52 45 37 32 30 27 25 25 26 27 29 30 32 34 35 37 37 37 41 44 47 48 36 43 51 51 50 48 50 53 55
24 24 26 27 28 30 32 33 35 37 38 40 44 49 54 44 35 32 30 29 28 28 29 30 32 33 34 35 35 39 43 44 44 46 48 45 41 41 53 57 57 55 55 60 60
26 27 28 29 30 32 34 35 36 37 39 41 46 51 52 42 34 30 30 31 31 30 30 31 32 33 35 36 38 39 44 45 45 47 50 48 46 48 51 55 56 59 63 65 61
29 29 30 31 33 34 36 38 37 37 40 41 46 49 49 38 33 32 33 35 35 35 34 36 36 36 38 39 42 43 45 47 49 48 53 50 50 50 53 58 61 64 67 65 64
32 32 32 33 35 37 38 39 39 38 37 40 41 45 46 38 34 36 38 41 41 39 38 37 37 40 41 42 45 47 48 48 48 50 54 53 53 51 56 57 63 65 68 69 67
35 35 35 36 38 40 41 42 42 43 38 40 43 50 48 43 40 41 43 47 49 48 43 40 39 39 40 41 43 43 48 50 51 53 56 56 57 63 60 67 68 68 67 71 74
37 38 38 39 40 43 44 45 45 46 43 42 49 51 51 47 47 47 48 50 51 51 47 42 43 41 40 42 45 47 50 52 56 57 60 62 66 67 68 69 70 72 73 75 77
40 40 40 41 42 43 46 47 47 47 46 48 49 50 51 53 53 51 52 55 56 55 49 47 46 46 46 49 52 54 54 55 55 59 64 65 70 68 69 73 73 72 74 74 76
41 41 42 43 44 45 47 49 48 46 49 51 52 53 54 54 55 55 56 58 60 57 52 49 48 49 51 52 54 55 56 54 57 62 70 72 75 72 74 74 75 75 75 76 76
44 44 44 45 46 48 50 50 49 47 49 50 53 56 56 55 57 60 59 59 61 58 56 54 55 55 56 58 57 58 58 59 62 66 74 76 75 72 74 78 77 78 78 75 79
48 48 47 48 48 50 52 50 50 47 47 51 54 57 58 58 60 62 63 63 60 62 59 59 56 58 60 60 62 61 62 64 64 68 73 75 76 75 77 78 77 79 77 76 77
50 51 50 51 53 54 53 52 51 48 50 53 56 58 58 60 63 64 65 66 62 66 62 60 62 62 64 65 65 64 63 63 67 70 72 69 74 76 76 76 78 78 77 77 79
55 55 54 54 55 56 56 56 51 50 52 56 59 59 59 61 65 68 69 68 67 68 61 61 65 68 69 68 67 65 63 63 70 73 73 71 73 73 73 73 74 75 76 77 82
61 58 56 55 56 58 61 58 55 54 55 57 60 61 62 65 67 72 73 70 70 66 61 64 69 71 71 69 66 65 65 66 72 71 72 70 71 72 72 72 72 71 72 77 81
60 62 58 58 60 63 64 60 59 59 57 58 59 60 64 67 68 73 74 73 71 67 68 72 74 74 72 67 65 65 66 68 69 69 74 75 67 62 71 75 75 73 73 80 84
64 66 63 64 65 66 64 61 62 61 60 61 60 63 67 69 72 72 77 75 73 71 71 76 78 77 70 66 64 68 68 70 71 72 73 71 70 66 68 74 73 74 79 84 85
69 70 71 70 70 67 65 65 67 64 62 63 66 67 70 72 76 77 78 78 75 72 74 79 80 78 73 66 67 66 68 70 70 71 68 70 68 64 70 70 71 74 80 84 86
73 75 75 73 70 68 67 69 69 65 65 64 67 69 71 74 78 80 86 80 76 75 79 83 79 70 66 64 63 67 68 69 67 69 67 69 70 63 69 73 71 72 80 87 86
76 78 76 74 69 68 70 72 69 67 70 74 76 79 80 82 84 88 79 83 76 78 82 78 70 66 66 62 63 65 64 66 69 65 71 63 66 65 70 73 72 77 82 87 88
79 75 74 72 73 75 76 79 74 76 76 78 80 83 75 83 79 73 80 78 75 78 76 70 68 65 65 61 63 64 59 61 64 67 67 67 63 65 67 72 73 77 84 88 89
75 76 75 74 79 81 78 74 76 78 82 85 87 86 86 84 73 82 86 75 79 79 72 68 66 66 63 61 62 59 56 58 61 65 63 64 63 64 64 69 76 79 82 89 91
Wind_Direction
262 276 304 312 315 321 330 333 340 341 344 349 353 351 354 351 349 345 328 325 317 319 301 294 292 297 315 330 334 337 336 331 329 330 332 340 341 341 332 317 322 321 312 311 309
254 283 297 305 311 319 327 333 335 335 342 348 348 349 354 349 348 346 339 315 315 306 298 287 291 297 305 315 322 323 325 329 327 328 330 333 340 337 328 324 320 317 312 311 308
272 291 299 305 312 320 328 330 333 334 337 337 344 346 351 348 346 343 340 323 313 305 295 291 292 296 300 307 310 316 325 326 325 323 323 330 339 335 330 325 322 317 313 312 315
288 295 299 305 312 319 327 328 328 329 333 333 338 344 345 348 345 343 337 330 319 307 297 294 293 294 297 301 306 314 319 321 322 319 322 332 339 334 332 323 317 317 316 316 316
289 294 299 304 311 317 322 324 324 329 327 329 337 344 345 344 341 339 336 328 325 320 312 302 296 295 297 300 304 312 316 317 316 317 323 332 338 333 329 318 317 315 317 317 317
288 296 299 307 311 316 319 320 322 323 323 329 333 339 345 343 339 334 333 329 325 322 318 312 309 305 303 305 309 312 313 313 314 319 322 330 336 329 326 315 312 315 318 319 319
287 293 301 307 311 314 317 319 322 321 322 326 328 337 343 342 337 335 332 328 322 319 313 310 310 309 307 307 307 308 309 310 315 317 321 323 331 324 320 318 312 317 318 316 314
285 295 301 306 308 312 315 319 321 320 321 322 327 335 335 335 337 331 331 327 320 317 314 312 310 308 306 304 303 305 308 309 314 316 317 320 322 321 316 315 317 318 316 315 312
285 291 297 300 304 307 312 318 319 320 319 323 329 331 334 334 332 330 328 326 323 316 311 304 303 303 301 305 311 313 312 311 312 314 314 319 319 320 314 311 313 312 313 314 314
283 287 292 296 300 306 311 314 316 317 321 326 326 331 334 335 327 330 327 328 325 319 317 308 304 304 307 309 308 308 306 308 309 312 316 316 317 317 312 312 313 313 314 314 310
279 284 290 293 298 304 307 310 314 317 317 323 330 331 332 335 329 326 327 329 329 322 320 314 308 305 303 304 306 307 308 310 314 317 316 313 314 311 309 310 314 312 315 312 309
278 283 287 292 297 301 304 306 311 315 316 319 326 325 327 326 324 324 326 328 330 329 325 321 317 309 309 308 309 310 312 316 320 317 316 313 311 310 315 317 315 313 314 311 310
277 282 286 291 295 298 302 307 311 313 314 316 320 323 326 325 322 323 324 326 329 328 325 320 316 314 312 310 310 313 316 317 319 318 314 313 313 318 318 315 317 316 316 312 311
277 280 285 289 290 296 300 304 307 309 308 311 317 321 324 329 324 323 323 327 329 327 322 319 314 312 312 315 317 316 316 316 317 316 316 318 316 317 319 318 318 316 312 312 313
276 280 284 286 289 292 296 299 302 306 305 309 311 314 317 325 327 325 323 322 325 326 323 319 316 314 317 317 315 313 314 315 316 317 317 317 319 320 320 320 315 314 314 316 314
276 278 280 282 286 289 291 295 299 300 302 305 307 310 312 319 321 322 321 322 322 322 321 320 317 315 315 315 312 313 314 315 318 318 318 319 318 321 320 316 316 317 318 318 315
276 277 278 280 283 285 287 290 292 296 301 300 302 305 309 312 314 317 318 320 320 320 317 314 313 314 314 314 313 313 316 316 317 317 318 319 317 318 317 316 318 318 319 318 317
271 273 275 277 280 281 283 287 291 298 297 299 299 301 306 309 311 313 314 317 317 318 314 311 311 312 314 314 312 311 313 315 315 314 316 316 314 315 316 318 318 320 318 318 318
269 271 272 274 277 279 281 284 291 295 296 296 299 300 303 307 309 312 312 315 315 317 313 311 312 313 313 312 309 309 310 312 311 312 312 315 315 314 316 315 317 316 317 318 320
269 269 269 271 274 277 279 286 289 289 292 295 300 301 304 305 308 311 310 314 315 313 314 313 311 312 311 308 307 307 307 312 310 310 308 315 314 315 313 314 314 313 316 318 319
268 270 270 271 273 275 280 287 289 288 289 292 297 299 300 302 303 308 311 309 311 310 309 310 310 309 308 307 305 306 307 308 307 307 308 312 316 317 312 312 314 317 319 321 325
268 269 271 271 274 277 282 285 285 286 288 290 291 296 298 299 302 302 310 310 308 306 306 310 309 307 305 303 303 305 306 307 305 307 310 310 319 310 312 314 314 318 320 325 328
267 270 271 272 274 277 281 282 283 285 286 287 290 293 295 297 297 301 306 308 305 305 308 310 308 305 301 300 302 303 305 304 304 306 310 306 316 315 310 311 313 319 322 325 329
267 268 270 273 276 279 282 281 281 284 287 290 290 291 293 294 295 298 303 305 303 302 305 307 303 300 297 297 299 302 304 301 303 306 305 313 311 312 311 311 315 321 323 325 330
264 267 270 275 279 279 279 281 282 287 287 287 289 293 291 293 299 303 301 305 301 298 301 302 298 296 294 296 298 300 303 302 303 305 306 309 309 311 312 314 320 321 326 326 330
264 268 272 274 275 276 277 277 283 285 286 287 290 295 291 296 302 294 298 299 297 299 299 297 294 293 294 296 297 300 305 301 303 306 306 307 310 310 314 315 318 324 327 328 331
267 270 272 273 271 276 281 284 284 284 287 289 290 293 292 293 291 294 296 293 297 297 295 293 292 293 294 296 297 302 304 304 305 304 304 306 308 311 314 314 322 324 328 330 331
Height
5917 5918 5918 5917 5917 5916 5915 5913 5911 5908 5905 5902 5898 5895 5890 5884 5881 5877 5875 5874 5873 5871 5870 5869 5868 5866 5865 5863 5860 5857 5854 5847 5842 5840 5839 5837 5832 5828 5821 5815 5811 5808 5803 5800 5797
5916 5916 5916 5916 5914 5914 5913 5911 5909 5906 5903 5899 5897 5892 5888 5882 5878 5875 5872 5871 5869 5868 5867 5865 5864 5864 5863 5860 5857 5854 5851 5846 5841 5835 5832 5830 5827 5820 5814 5808 5805 5801 5796 5792 5789
5913 5913 5913 5913 5912 5911 5911 5909 5906 5903 5900 5897 5894 5890 5887 5881 5876 5873 5870 5868 5866 5864 5863 5862 5860 5859 5857 5855 5853 5850 5847 5843 5838 5831 5826 5825 5820 5814 5808 5802 5798 5794 5789 5783 5780
5911 5911 5911 5910 5910 5909 5908 5906 5904 5901 5898 5895 5891 5887 5883 5879 5875 5870 5867 5864 5862 5861 5860 5858 5856 5855 5853 5851 5848 5846 5842 5838 5833 5826 5821 5819 5814 5806 5801 5795 5790 5786 5781 5777 5775
5908 5908 5908 5907 5906 5906 5904 5902 5900 5899 5896 5891 5887 5884 5878 5875 5870 5867 5864 5862 5860 5858 5856 5854 5852 5850 5848 5845 5843 5840 5837 5832 5826 5819 5814 5813 5807 5800 5794 5785 5780 5776 5773 5769 5762
5905 5905 5904 5904 5903 5902 5900 5899 5897 5895 5892 5887 5883 5880 5875 5870 5867 5863 5859 5857 5855 5854 5851 5849 5847 5845 5843 5840 5837 5834 5832 5827 5819 5813 5808 5807 5803 5792 5785 5776 5769 5767 5765 5760 5756
5901 5901 5901 5900 5899 5898 5896 5895 5893 5891 5887 5883 5880 5875 5872 5867 5861 5859 5856 5853 5850 5848 5845 5843 5841 5839 5836 5833 5830 5828 5826 5820 5813 5806 5801 5799 5799 5788 5777 5769 5762 5758 5754 5749 5743
5897 5897 5897 5896 5894 5894 5892 5890 5888 5885 5882 5879 5875 5871 5867 5863 5859 5855 5852 5849 5846 5843 5840 5837 5834 5831 5828 5826 5823 5821 5817 5812 5808 5800 5792 5791 5790 5783 5770 5759 5755 5751 5745 5738 5732
5892 5892 5891 5891 5890 5889 5887 5886 5884 5881 5876 5873 5870 5867 5863 5858 5855 5851 5847 5843 5840 5837 5834 5830 5828 5825 5822 5819 5816 5813 5808 5804 5801 5795 5784 5780 5777 5769 5759 5748 5743 5738 5733 5725 5718
5885 5886 5886 5885 5884 5883 5881 5880 5878 5876 5871 5869 5866 5864 5859 5854 5849 5845 5841 5838 5834 5830 5828 5823 5820 5816 5814 5812 5808 5804 5799 5795 5790 5786 5776 5767 5763 5760 5749 5743 5734 5725 5718 5710 5701
5879 5879 5879 5879 5878 5877 5876 5874 5874 5871 5869 5865 5862 5858 5854 5850 5846 5840 5834 5830 5827 5822 5819 5815 5811 5807 5805 5803 5799 5794 5788 5783 5779 5775 5769 5757 5754 5747 5738 5732 5725 5714 5706 5696 5687
5872 5872 5873 5872 5871 5869 5868 5867 5864 5862 5862 5858 5854 5850 5846 5843 5839 5834 5828 5823 5819 5814 5811 5809 5803 5798 5796 5792 5787 5783 5777 5772 5768 5761 5756 5750 5743 5735 5726 5718 5710 5701 5691 5678 5669
5864 5865 5865 5865 5864 5862 5860 5858 5856 5853 5851 5849 5846 5840 5837 5835 5829 5825 5820 5815 5812 5807 5803 5799 5794 5788 5785 5782 5777 5771 5764 5758 5755 5747 5737 5733 5725 5715 5708 5702 5695 5683 5672 5663 5650
5857 5857 5857 5857 5857 5854 5852 5850 5848 5846 5842 5842 5838 5832 5829 5826 5821 5817 5811 5807 5802 5796 5791 5788 5783 5779 5775 5770 5764 5758 5752 5747 5741 5734 5727 5713 5709 5703 5696 5686 5678 5671 5661 5650 5639
5848 5848 5848 5847 5847 5845 5844 5842 5840 5838 5834 5833 5828 5823 5819 5820 5814 5808 5804 5797 5793 5787 5782 5776 5770 5765 5761 5757 5751 5746 5740 5735 5728 5720 5708 5701 5690 5685 5677 5669 5661 5653 5641 5629 5612
5839 5839 5839 5838 5837 5836 5833 5832 5832 5831 5828 5823 5819 5814 5811 5810 5805 5799 5793 5789 5783 5777 5771 5766 5759 5754 5750 5745 5738 5733 5727 5721 5715 5706 5693 5685 5675 5676 5660 5650 5640 5630 5620 5608 5593
5829 5829 5829 5829 5828 5826 5823 5823 5822 5823 5821 5815 5810 5805 5803 5800 5796 5790 5784 5779 5774 5766 5760 5753 5748 5743 5738 5733 5725 5719 5712 5703 5702 5693 5687 5672 5657 5648 5641 5629 5620 5611 5601 5590 5577
5817 5818 5819 5818 5816 5814 5812 5812 5812 5813 5809 5805 5800 5795 5793 5789 5784 5778 5772 5766 5762 5756 5749 5741 5735 5731 5726 5720 5713 5707 5700 5690 5679 5675 5674 5672 5650 5637 5625 5613 5603 5591 5581 5570 5559
5804 5805 5807 5806 5804 5802 5800 5798 5803 5802 5799 5794 5788 5784 5783 5778 5770 5765 5759 5755 5750 5745 5738 5729 5723 5718 5712 5706 5700 5693 5685 5679 5665 5658 5651 5651 5638 5626 5611 5602 5592 5581 5568 5556 5540
5790 5791 5794 5794 5791 5788 5785 5790 5791 5789 5787 5782 5777 5775 5770 5765 5759 5752 5745 5743 5738 5731 5724 5718 5710 5705 5700 5693 5688 5680 5671 5663 5650 5641 5633 5641 5627 5610 5594 5590 5586 5576 5563 5545 5531
5776 5775 5781 5780 5777 5773 5773 5778 5777 5776 5773 5770 5766 5762 5759 5754 5750 5743 5737 5733 5727 5720 5713 5707 5700 5694 5686 5681 5673 5665 5657 5651 5640 5631 5617 5610 5620 5601 5582 5568 5561 5555 5543 5528 5509
5762 5760 5764 5764 5763 5761 5764 5766 5763 5759 5758 5755 5754 5750 5745 5741 5736 5730 5727 5719 5714 5708 5701 5695 5686 5679 5674 5667 5661 5651 5643 5635 5623 5615 5607 5597 5599 5586 5571 5556 5541 5536 5519 5507 5492
5744 5745 5743 5745 5743 5749 5751 5750 5745 5746 5746 5743 5739 5736 5731 5728 5717 5714 5712 5708 5700 5693 5686 5680 5671 5664 5659 5656 5649 5641 5632 5619 5609 5599 5597 5580 5579 5568 5551 5545 5537 5521 5506 5493 5477
5730 5725 5726 5730 5732 5735 5736 5731 5728 5731 5731 5729 5724 5718 5717 5712 5704 5698 5693 5688 5682 5675 5670 5665 5659 5653 5647 5641 5635 5624 5616 5607 5597 5586 5579 5570 5558 5561 5541 5527 5520 5512 5495 5477 5462
5710 5706 5709 5714 5719 5719 5716 5714 5713 5716 5715 5711 5708 5705 5699 5690 5685 5680 5672 5669 5665 5660 5655 5648 5642 5638 5632 5628 5620 5614 5607 5592 5581 5574 5564 5565 5547 5537 5523 5510 5501 5490 5478 5461 5448
5690 5697 5697 5702 5699 5697 5695 5696 5704 5702 5698 5693 5688 5687 5679 5673 5669 5660 5657 5653 5648 5644 5637 5631 5625 5621 5619 5614 5606 5600 5597 5585 5571 5560 5552 5542 5540 5526 5518 5496 5489 5481 5461 5446 5431
5680 5680 5678 5686 5679 5678 5680 5686 5681 5679 5678 5675 5670 5663 5659 5661 5651 5645 5638 5634 5630 5626 5621 5616 5610 5605 5604 5599 5589 5589 5585 5574 5564 5552 5541 5532 5522 5514 5510 5494 5472 5466 5456 5430 5414